{"data":{"norad_id":48673,"intl_designator":"2021-044AM","name":"STARLINK-2711","alt_names":[],"object_type":"PAYLOAD","status":"ACTIVE","operator":null,"country":"US","launch_date":"2021-05-26","launch_site_code":"AFETR","launch_vehicle":null,"mission":null,"orbit_class":"UNKNOWN","rcs_meters":null,"size_class":null,"mass_kg":null,"dimensions":null,"purposes":["comms"],"wikipedia_slug":null,"has_3d_model":false,"image_url":null,"decayed_at":null,"tle_current":{"epoch":"2026-09-19T19:32:29.757120Z","epoch_age_seconds":100476,"freshness":"FRESH","line1":"1 48673U 21044AM  26262.81423330 -.00000390  00000+0 -81382-6 0  9992","line2":"2 48673  53.1600 291.9968 0001265  89.7190 270.3956 15.31695234293530","mean_motion":15.31695234,"eccentricity":0.0001265,"inclination_deg":53.16,"raan_deg":291.9968,"arg_perigee_deg":89.719,"mean_anomaly_deg":270.3956,"bstar":-8.1382e-7,"rev_number":29353,"period_min":94.01348049112,"perigee_km":469.88781772337,"apogee_km":471.62058719759,"semimajor_km":6848.8912024605,"source":"CELESTRAK","updated_at":"2026-09-20T09:00:39.241890Z"}}}